Location: Newark
(13.6797°N, 8.5297°E)
Time: 03:28:52
(UTC+00:00)

Courier 1B Rocket - Pass Details

Date: 18 January 2020
Orbit: 920 x 1202 km, 28.2° (Epoch: 16 February)

Event Time Altitude Azimuth Distance (km) Brightness Sun altitude
Rises 21:45:19 0° 276° (W) 3,624 - -62.7°
Reaches altitude 10° 21:48:22 10° 263° (W) 2,715 - -63.4°
Maximum altitude 21:53:37 25° 210° (SSW) 1,907 - -64.6°
Drops below altitude 10° 21:59:11 10° 157° (SSE) 2,875 - -65.8°
Sets 22:02:32 0° 144° (SE) 3,882 - -66.6°
